TimeEEST,TemperatureF,Dew PointF,Humidity,Sea Level PressureIn,VisibilityMPH,Wind Direction,Wind SpeedMPH,Gust SpeedMPH,PrecipitationIn,Events,Conditions,WindDirDegrees,DateUTC
4:50 AM,80.6,60.8,51,29.77,-9999.0,NNE,9.2,-,N/A,,Clear,20,2013-08-20 01:50:00
5:20 AM,80.6,60.8,51,29.77,-9999.0,NNE,5.8,-,N/A,,Clear,20,2013-08-20 02:20:00
5:50 AM,80.6,64.4,58,29.77,-9999.0,NNE,8.1,-,N/A,,Clear,20,2013-08-20 02:50:00
6:20 AM,78.8,62.6,57,29.77,-9999.0,NNE,8.1,-,N/A,,Clear,30,2013-08-20 03:20:00
6:50 AM,78.8,60.8,54,29.77,-9999.0,NNE,8.1,-,N/A,,Clear,30,2013-08-20 03:50:00
7:20 AM,80.6,60.8,51,29.77,-9999.0,NE,8.1,-,N/A,,Clear,40,2013-08-20 04:20:00
7:50 AM,80.6,60.8,51,29.80,-9999.0,NE,5.8,-,N/A,,Clear,40,2013-08-20 04:50:00
8:20 AM,82.4,62.6,51,29.80,-9999.0,NNE,8.1,-,N/A,,Clear,30,2013-08-20 05:20:00
8:50 AM,84.2,59.0,42,29.80,-9999.0,NNE,8.1,-,N/A,,Clear,30,2013-08-20 05:50:00
9:00 AM,85,58,30,29.80,6,NNE,8.1,,,,,30,2013-08-20 06:00:00
9:20 AM,86.0,60.8,43,29.80,-9999.0,NNE,9.2,-,N/A,,Clear,20,2013-08-20 06:20:00
9:50 AM,86.0,60.8,43,29.80,-9999.0,NNE,9.2,-,N/A,,Clear,20,2013-08-20 06:50:00
10:20 AM,87.8,59.0,38,29.80,-9999.0,NNE,10.4,-,N/A,,Clear,20,2013-08-20 07:20:00
10:50 AM,87.8,59.0,38,29.80,-9999.0,NNE,9.2,-,N/A,,Clear,20,2013-08-20 07:50:00
11:20 AM,89.6,59.0,36,29.80,-9999.0,North,11.5,-,N/A,,Clear,10,2013-08-20 08:20:00
11:50 AM,91.4,59.0,34,29.80,-9999.0,North,11.5,-,N/A,,Clear,10,2013-08-20 08:50:00
12:20 PM,91.4,59.0,34,29.80,-9999.0,NNE,10.4,-,N/A,,Clear,20,2013-08-20 09:20:00
12:50 PM,93.2,57.2,30,29.80,-9999.0,North,8.1,-,N/A,,Clear,10,2013-08-20 09:50:00
1:20 PM,95.0,60.8,32,29.80,-9999.0,North,9.2,-,N/A,,Clear,10,2013-08-20 10:20:00
1:50 PM,95.0,60.8,32,29.80,-9999.0,NNE,11.5,-,N/A,,Clear,20,2013-08-20 10:50:00
2:20 PM,95.0,60.8,32,29.80,-9999.0,NNE,11.5,-,N/A,,Clear,20,2013-08-20 11:20:00
2:50 PM,95.0,62.6,34,29.80,-9999.0,North,11.5,-,N/A,,Clear,360,2013-08-20 11:50:00
3:00 PM,96,62,23,29.80,6,North,11.5,,,,,0,2013-08-20 12:00:00
3:20 PM,95.0,62.6,34,29.80,-9999.0,North,11.5,-,N/A,,Clear,10,2013-08-20 12:20:00
3:50 PM,95.0,62.6,34,29.77,-9999.0,Variable,6.9,-,N/A,,Clear,0,2013-08-20 12:50:00
4:20 PM,95.0,62.6,34,29.77,-9999.0,South,9.2,-,N/A,,Clear,170,2013-08-20 13:20:00
4:50 PM,95.0,62.6,34,29.77,-9999.0,Variable,5.8,-,N/A,,Clear,0,2013-08-20 13:50:00
5:20 PM,95.0,62.6,34,29.77,-9999.0,North,11.5,-,N/A,,Clear,360,2013-08-20 14:20:00
5:50 PM,95.0,60.8,32,29.74,-9999.0,Variable,6.9,-,N/A,,Clear,0,2013-08-20 14:50:00
6:20 PM,95.0,60.8,32,29.74,-9999.0,Variable,6.9,-,N/A,,Clear,0,2013-08-20 15:20:00
6:50 PM,95.0,60.8,32,29.74,-9999.0,NNW,9.2,-,N/A,,Clear,340,2013-08-20 15:50:00
7:20 PM,93.2,60.8,34,29.74,-9999.0,NNW,9.2,-,N/A,,Clear,340,2013-08-20 16:20:00
7:50 PM,91.4,60.8,36,29.74,-9999.0,NNW,9.2,-,N/A,,Clear,340,2013-08-20 16:50:00
8:20 PM,89.6,60.8,38,29.74,-9999.0,NNW,9.2,-,N/A,,Clear,340,2013-08-20 17:20:00
8:50 PM,87.8,59.0,38,29.74,-9999.0,NNW,9.2,-,N/A,,Clear,340,2013-08-20 17:50:00
9:00 PM,89,58,25,29.75,6,NNW,9.2,,,,,340,2013-08-20 18:00:00